Погода в Ужгороде

Поиск расширенной информации на нашем сайте:

Полезная информация:

Новости сайта



02.01.2020
Опубликован Долгосрочный прогноз погоды по городам России и ближнего зарубежья на январь 2020 года.
Карты: Прогноз на январь и февраль 2020 года, Сравнение прогнозируемой аномалии приземной температуры воздуха на январь 2020 года по разным моделям.




Погода в Ужгороде - сегодня

Время (UTC), дата Ветер
(°,м/с) 
Видим.   Явления Облачность Т
(°С)
Тd
(°С)
f(%) Тe
(°С)
Pmin
(гПа)
dP
(гПа)
Po
(мм)
O2
(г/м3)
Тmin Tmax R s Состояние
почвы
12 09.08.20 050 (СВ) 10 км    3/3 1000 м 
[Cu hum]
+30.5 +16.1 42 +41  1015.8  -1  752  269           
15 09.08.20 060 (СВ) 10 км    3/3 1500 м 
[Cu hum]
+30.3 +17.2 45 +43  1014.5  -1.3  751  269           
18 09.08.20 010 (С) 10 км    3/0 верхняя 
[Ci fib]
+25.1 +17.3 62 +38  1014.7  751  273    +31.8       
21 09.08.20 070 (В) 10 км    ясно 
+23.7 +16 62 +34  1015.2  0.4  751  275           
00 10.08.20 тихо ()   10 км    3/0 верхняя 
[Ci fib]
+18.4 +16.7 90 +30  1015.5  0.1  751  280           
03 10.08.20 тихо ()   10 км    ясно 
+17.4 +15.5 89 +27  1015.6  751  281           
06 10.08.20 тихо ()   10 км    3/0 верхняя 
[Ci fib]
+20.7 +17.6 82 +34  1015.9  0.5  752  278  +16.6         
09 10.08.20 360 (С) 10 км    3/1 1500 м верхняя 
[Cu med, cong|Ci fib]
+28.2 +17.6 53 +42  1015.6  752  271           
12 10.08.20 280 (З) 10 км    4/4 1500 м 
[Cu med, cong]
+29.2 +17.9 51 +43  1014.8  -0.7  751  269           
15 10.08.20 060 (СВ) 10 км  гроза без осадков  4/4 1500 м кучево-дожд. 
[Cb calv]
+28 +16.6 50 +40  1014.2  -0.7  751  271           
18 10.08.20 тихо ()   10 км  {гроза}  8/3 1500 м верхняя 
[Cu hum|Ci fib]
+22.8 +18 74 +37  1015.4  751  275    +30.6       
21 10.08.20 тихо ()   10 км    4/0 верхняя 
[Ci]
+18.4 +16.6 89 +30  1016.4  0.7  752  280           
00 11.08.20 тихо ()   10 км    4/0 верхняя 
[Ci fib]
+16.6 +15.6 94 +26  1016.5  752  282           
03 11.08.20 тихо ()   10 км    3/0 верхняя 
[Ci]
+15.1 +14.4 96 +23  1016.8  0.3  752  284           
06 11.08.20 тихо ()   10 км    9/0 верхняя 
[Ci fib]
+21.5 +17.8 79 +35  1017.1  0.6  753  277  +14.8         
09 11.08.20 тихо ()   10 км    9/1 1500 м верхняя 
[Cu med, cong|Ci fib]
+26.4 +18.9 63 +42  1017  0.1  753  272           
12 11.08.20 тихо ()   10 км    6/3 1500 м верхняя 
[Cu med, cong|Ci fib]
+29.9 +15.5 42 +39  1016.3  -0.5  752  270           
15 11.08.20 340 (С) 10 км    6/6 1200 м 
[Cu med, cong]
+30.1 +16.4 44 +41  1015.2  -1.1  751  269           
18 11.08.20 060 (СВ) 10 км    4/0 средняя 
[Ac trans]
+25.1 +14.6 52 +33  1015.9  0.4  752  274    +30.7       
21 11.08.20 050 (СВ) 10 км    ясно 
+22.7 +11.9 50 +26  1016.5  0.5  752  278           
00 12.08.20 тихо ()   10 км    ясно 
+15.5 +13.5 88 +22  1017  0.2  752  284           
03 12.08.20 030 (СВ) 10 км    ясно 
+13.5 +12.4 93 +19  1017  -0.1  752  286           
06 12.08.20 030 (СВ) 10 км    ясно 
+19.8 +15 74 +30  1017.8  1.1  753  280  +13         
09 12.08.20 тихо ()   10 км    3/3 1000 м 
[Cu hum]
+27.1 +15.3 48 +36  1017.7  0.2  753  273           
12 12.08.20 340 (С) 10 км    3/3 1500 м 
[Cu hum]
+28.5 +12.5 37 +33  1016.9  -0.7  753  272           
Время (UTC), дата Ветер
(°,м/с) 
Видим.   Явления Облачность Т
(°С)
Тd
(°С)
f(%) Тe
(°С)
Pmin
(гПа)
dP
(гПа)
Po
(мм)
O2
(г/м3)
Тmin Tmax R s Состояние
почвы

Для получения пояснительной информации подведите курсор к названию столбца.

ПОГОДА в Ужгороде - архив

Всё, что Вы хотите узнать о погоде в Ужгороде - удобно и подробно!

Выберите нужную дату (начиная с 1 января 2019* года) и нажмите кнопку "Найти".
Будут отображены архивные сводки погоды по пункту Ужгород, начиная с указанной даты.


Отображать данные в формате CSV (для использования в таблицах Excel)


Внимание! Наш архив погоды предназначен исключительно для личного некоммерческого использования в познавательных целях. Если Вам необходимы официальные справки о состоянии погоды (для производственных, юридических, коммерческих и т.п. целей), обращайтесь в органы Росгидромета.

*Примечание: данная дата относится к архиву по метеостанциям СССР (Россия, СНГ, Балтия).
Архив по метеостанциям Зарубежной Европы и Азии (кроме Китая) хранится 10 дней, по другим регионам земного шара (Китай, Африка, Америка, Австралия, Океания) - 1 день.

Ужгород - район местоположения метеостанции


Название, широта, долгота, высота метеостанции:
Ужгород 48.6°ш. 22.3°д. 124 м над ур. моря [Украина]

Дополнительная информация

В oтличие oт бoльшинства пoгoдных сайтoв мы публикуем пoдрoбную метеoинфoрмацию в детальнoм прoфессиoнальнoм фoрмате.

Характеристики температуры и влажнoсти вoздуха измеряются на высoте 2 м в тени вдали oт зданий и деревьев.
Скoрoсть ветра измеряется на высoте 10 м (на урoвне рoста челoвека скoрoсть ветра ниже в 1.5-2 раза). Если метеoстанция нахoдится в гoрoде или в лесу, тo скoрoсть ветра занижена на 2-4 м/с пo сравнению с oткрытым местoм. Скoрoсть ветра над акватoриями крупных рек и oзёр, а также на вершинах хoлмoв на 2-5 м/с выше, чем в oбычных услoвиях.
Атмoсфернoе давление в разных тoчках местнoсти мoжет значительнo oтличаться oт давления на метеoстанции, в зависимoсти oт услoвий рельефа (при пoдъёме на 10 м давление пoнижается примернo на 1 мм рт.ст.).